Temp
81 84 75 78 78 78 78 77 77 77 77 78 78 78 77 77 77 77 77 77 78 77 77 76 76 75 76 76 77 76 75 75 75 76 76 77 77 77 77 76 76 81 77
84 84 74 77 78 78 77 77 77 77 77 78 78 77 77 77 77 77 76 76 77 77 76 76 75 75 74 74 75 75 75 74 74 74 75 76 76 77 76 75 75 79 76
83 83 81 76 77 77 76 76 76 77 77 78 78 77 78 77 77 76 76 76 76 76 76 75 74 74 73 73 74 74 74 73 73 73 74 84 82 76 76 75 75 75 76
83 83 84 74 76 76 76 76 76 77 77 77 77 77 77 77 77 76 76 75 75 75 75 74 74 73 72 72 73 74 73 72 71 73 83 84 82 76 76 75 75 75 76
82 83 83 73 76 77 76 76 76 76 77 77 77 77 77 77 76 75 75 75 75 75 74 73 73 72 71 72 72 73 72 71 71 77 82 82 83 78 76 76 76 74 73
81 83 77 73 76 76 76 76 76 76 76 77 77 77 77 77 76 75 74 74 74 74 73 72 71 71 70 71 71 72 71 70 72 80 81 78 81 76 76 75 74 73 73
80 82 81 73 74 75 75 75 75 76 76 76 76 76 76 76 75 75 74 74 74 74 73 71 70 70 70 70 70 70 68 67 77 78 78 78 77 74 74 74 74 74 73
79 78 80 71 71 73 74 74 74 75 75 75 75 76 75 74 74 74 74 74 74 73 72 71 70 69 69 69 68 67 66 65 75 76 75 77 70 73 73 73 73 72 72
78 77 78 80 75 67 70 71 73 74 74 74 74 74 73 73 73 73 73 74 74 73 71 70 69 68 68 67 66 65 63 63 77 75 75 77 69 73 73 72 72 72 71
73 75 75 77 74 75 80 68 69 70 71 72 71 70 68 68 70 70 69 71 73 72 70 69 68 67 65 64 64 62 62 64 74 74 75 72 68 72 72 72 71 71 71
71 70 71 71 71 74 75 76 67 67 69 69 69 67 68 78 76 74 67 69 71 70 70 69 67 64 63 61 61 61 63 73 73 73 74 64 67 71 72 71 71 71 71
67 68 68 69 69 67 72 74 74 73 75 80 79 78 79 80 77 74 66 65 67 67 69 68 65 62 65 71 72 66 72 70 72 71 72 62 66 69 71 71 71 71 71
65 67 67 67 68 69 70 72 72 72 78 78 79 75 73 71 71 69 68 68 68 63 68 67 67 73 68 70 70 70 69 70 71 71 67 59 63 67 69 70 71 71 70
62 64 65 65 66 68 73 72 72 72 72 76 77 77 74 70 68 67 66 68 65 66 65 64 64 69 68 67 67 67 67 68 70 70 68 56 60 64 67 69 71 71 71
60 61 62 64 65 67 69 72 71 71 72 72 71 68 67 69 71 71 67 67 66 65 66 71 66 64 68 67 67 66 66 66 66 68 68 57 58 62 65 67 69 71 72
58 59 61 60 62 67 72 69 68 67 65 64 64 65 65 65 64 64 65 64 63 63 64 63 63 60 60 60 65 64 65 66 65 65 67 67 58 59 61 64 66 68 71
58 58 54 56 61 64 61 59 59 60 60 58 59 60 61 63 63 62 61 60 59 60 61 59 57 59 60 60 59 57 59 64 65 65 66 66 66 60 58 61 63 64 65
57 53 53 56 56 56 55 55 55 55 55 55 55 58 59 60 61 60 58 57 57 55 55 55 54 55 55 54 54 54 56 63 63 64 65 65 65 65 63 61 59 61 62
56 53 52 54 55 55 55 55 55 56 57 59 60 57 57 59 58 57 56 54 55 55 54 53 52 55 54 55 52 55 57 55 57 64 64 63 63 62 63 61 57 56 58
56 55 54 53 54 55 55 55 57 56 57 58 57 57 58 58 61 60 58 55 57 57 55 56 55 52 51 52 52 54 56 55 55 60 63 63 62 61 61 61 61 62 57
55 56 56 55 56 59 61 60 57 55 54 54 54 54 55 56 56 57 56 57 58 56 56 57 56 56 56 57 58 61 61 62 61 62 63 63 61 60 60 61 60 61 62
52 53 54 55 56 57 58 56 56 54 53 53 52 51 52 52 53 53 54 53 54 55 53 54 54 56 57 57 55 56 56 61 61 62 62 60 60 60 60 60 59 59 59
50 51 52 53 54 56 56 55 54 55 55 53 51 49 49 50 50 51 51 51 51 52 50 50 52 52 52 54 54 52 51 50 51 60 59 59 59 59 59 60 59 59 59
48 50 51 52 52 53 55 55 55 53 49 49 48 48 47 48 48 49 49 49 49 49 48 48 49 50 51 48 53 53 52 49 45 46 56 57 57 56 57 58 58 58 59
48 49 50 50 50 51 52 52 51 48 48 50 48 46 46 46 46 47 47 47 47 47 46 46 46 46 48 47 47 47 49 51 51 46 44 49 53 54 55 56 56 56 57
46 47 48 48 47 49 50 50 50 48 47 46 46 45 45 46 46 45 45 46 46 45 44 45 45 44 45 46 46 46 45 44 45 44 43 45 45 50 51 52 53 55 56
MSLP
1017.63 1017.74 1018.52 1018.65 1018.89 1019.12 1019.38 1019.57 1019.73 1019.86 1019.89 1019.97 1020.07 1020.14 1020.29 1020.45 1020.53 1020.45 1020.60 1020.66 1020.70 1020.57 1020.56 1020.72 1020.79 1020.77 1020.65 1020.55 1020.35 1020.42 1020.32 1020.19 1020.08 1019.95 1019.88 1019.79 1019.69 1019.75 1019.72 1019.56 1019.23 1018.98 1019.27
1017.27 1017.83 1018.53 1018.68 1019.01 1019.25 1019.57 1019.76 1019.87 1019.95 1020.03 1020.13 1020.20 1020.44 1020.57 1020.63 1020.76 1020.78 1020.87 1020.98 1020.96 1020.84 1020.84 1021.03 1021.15 1021.09 1021.03 1021.01 1020.74 1020.74 1020.67 1020.61 1020.49 1020.38 1020.19 1020.11 1020.21 1020.18 1020.10 1019.95 1019.76 1019.62 1019.63
1017.50 1018.00 1018.54 1018.84 1018.96 1019.18 1019.57 1019.85 1020.00 1020.12 1020.23 1020.38 1020.42 1020.54 1020.72 1020.88 1020.88 1021.05 1021.19 1021.25 1021.20 1021.22 1021.17 1021.32 1021.45 1021.49 1021.43 1021.37 1021.25 1021.14 1021.12 1021.01 1020.91 1020.79 1020.39 1019.74 1020.16 1020.43 1020.43 1020.43 1020.36 1020.21 1020.04
1017.66 1017.95 1018.20 1018.96 1019.16 1019.38 1019.68 1019.91 1020.10 1020.25 1020.35 1020.45 1020.57 1020.70 1020.76 1020.85 1020.93 1021.19 1021.37 1021.44 1021.37 1021.40 1021.47 1021.55 1021.62 1021.69 1021.71 1021.66 1021.65 1021.50 1021.43 1021.34 1021.25 1020.95 1020.26 1020.11 1020.29 1020.73 1020.74 1020.74 1020.66 1020.67 1020.37
1017.98 1018.14 1018.35 1018.96 1019.11 1019.30 1019.68 1019.98 1020.20 1020.33 1020.48 1020.60 1020.70 1020.77 1020.90 1021.03 1021.22 1021.41 1021.58 1021.64 1021.59 1021.71 1021.79 1021.85 1021.96 1021.97 1021.93 1021.96 1021.87 1021.79 1021.70 1021.72 1021.57 1020.85 1020.56 1020.51 1020.21 1020.86 1020.94 1020.90 1020.82 1020.87 1020.88
1018.15 1018.42 1018.89 1019.28 1019.27 1019.41 1019.71 1019.95 1020.22 1020.40 1020.55 1020.70 1020.81 1020.89 1020.98 1021.13 1021.34 1021.51 1021.60 1021.80 1021.91 1021.97 1022.07 1022.19 1022.29 1022.25 1022.22 1022.26 1022.10 1021.99 1021.91 1021.86 1021.62 1021.05 1020.88 1021.05 1020.83 1021.33 1021.15 1021.15 1021.24 1021.03 1021.03
1018.36 1018.56 1018.88 1019.40 1019.48 1019.67 1019.85 1020.00 1020.21 1020.43 1020.62 1020.80 1020.95 1021.11 1021.21 1021.31 1021.51 1021.68 1021.77 1021.93 1022.08 1022.20 1022.27 1022.44 1022.51 1022.57 1022.53 1022.47 1022.34 1022.39 1022.30 1022.27 1021.66 1021.51 1021.47 1021.46 1021.54 1021.64 1021.55 1021.51 1021.43 1021.27 1021.29
1018.63 1018.97 1019.06 1019.46 1019.62 1019.77 1019.93 1020.13 1020.36 1020.61 1020.77 1020.93 1021.07 1021.20 1021.34 1021.34 1021.61 1021.80 1022.00 1022.14 1022.26 1022.39 1022.48 1022.68 1022.81 1022.87 1022.81 1022.73 1022.70 1022.67 1022.56 1022.51 1021.98 1021.92 1021.85 1021.70 1022.14 1021.88 1021.82 1021.78 1021.65 1021.61 1021.53
1019.04 1019.16 1019.25 1019.27 1019.71 1020.00 1020.00 1020.11 1020.29 1020.53 1020.76 1020.97 1021.10 1021.21 1021.42 1021.57 1021.77 1021.94 1022.07 1022.22 1022.35 1022.52 1022.78 1023.01 1023.05 1023.12 1023.28 1023.25 1023.17 1023.11 1022.97 1022.81 1022.05 1022.24 1022.12 1021.96 1022.31 1022.12 1022.00 1021.99 1021.86 1021.73 1021.69
1019.94 1019.86 1019.78 1019.61 1019.82 1019.81 1019.52 1020.04 1020.25 1020.41 1020.64 1020.82 1021.07 1021.29 1021.47 1021.70 1021.91 1022.17 1022.31 1022.45 1022.55 1022.76 1022.96 1023.17 1023.34 1023.52 1023.63 1023.71 1023.69 1023.57 1023.42 1023.14 1022.61 1022.49 1022.38 1022.64 1022.62 1022.25 1022.19 1022.13 1022.07 1021.90 1021.78
1020.28 1020.48 1020.48 1020.40 1020.16 1019.93 1019.93 1019.73 1020.29 1020.49 1020.55 1020.72 1020.94 1021.21 1021.42 1021.25 1021.63 1021.90 1022.32 1022.56 1022.70 1022.80 1022.93 1023.26 1023.49 1023.75 1023.85 1023.90 1023.90 1023.86 1023.64 1023.22 1023.01 1022.88 1022.72 1023.27 1023.00 1022.56 1022.37 1022.31 1022.21 1022.06 1021.91
1020.65 1020.78 1020.83 1020.69 1020.52 1020.48 1020.06 1020.09 1020.20 1020.44 1020.54 1020.33 1020.41 1020.68 1020.82 1020.99 1021.44 1021.77 1022.35 1022.55 1022.72 1022.92 1022.92 1023.04 1023.45 1023.72 1023.66 1023.60 1023.60 1023.73 1023.51 1023.59 1023.32 1023.29 1023.19 1023.68 1023.33 1023.00 1022.62 1022.38 1022.33 1022.15 1022.05
1021.50 1021.19 1021.12 1020.93 1020.72 1020.39 1020.05 1019.98 1020.08 1020.37 1020.34 1020.35 1020.43 1020.75 1021.00 1021.35 1021.75 1022.02 1022.35 1022.63 1022.78 1022.96 1023.03 1023.16 1023.23 1023.11 1023.49 1023.62 1023.72 1023.72 1023.77 1023.66 1023.53 1023.47 1023.56 1023.89 1023.67 1023.30 1022.90 1022.52 1022.27 1022.17 1022.14
1021.76 1021.57 1021.42 1021.19 1020.81 1020.44 1019.94 1019.81 1019.91 1020.10 1020.25 1020.24 1020.47 1020.67 1020.99 1021.43 1021.69 1022.09 1022.42 1022.53 1022.68 1022.83 1022.97 1023.27 1023.41 1023.29 1023.54 1023.80 1023.87 1023.85 1023.87 1023.73 1023.59 1023.56 1023.48 1023.99 1023.80 1023.40 1023.02 1022.68 1022.27 1022.11 1022.09
1022.21 1022.02 1021.70 1021.27 1020.75 1020.45 1020.21 1019.87 1020.06 1020.35 1020.51 1020.71 1021.02 1021.37 1021.43 1021.43 1021.36 1021.79 1022.37 1022.56 1022.69 1022.97 1023.03 1022.78 1023.22 1023.42 1023.37 1023.65 1023.82 1023.85 1023.86 1023.89 1023.87 1023.68 1023.54 1023.75 1023.75 1023.50 1023.23 1022.89 1022.48 1022.00 1021.91
1022.72 1022.39 1022.07 1021.69 1021.13 1020.43 1019.84 1020.13 1020.53 1020.98 1021.54 1021.91 1022.28 1022.37 1022.32 1022.29 1022.39 1022.46 1022.50 1022.67 1022.90 1023.12 1023.27 1023.46 1023.68 1023.89 1024.02 1024.21 1023.83 1024.00 1023.88 1023.73 1023.69 1023.69 1023.63 1023.52 1023.75 1023.59 1023.32 1023.08 1022.82 1022.38 1021.91
1023.19 1022.91 1022.63 1022.06 1021.27 1020.93 1021.32 1021.65 1021.94 1022.34 1022.66 1023.01 1023.26 1023.18 1023.07 1022.86 1022.83 1022.83 1022.97 1023.19 1023.42 1023.51 1023.66 1023.98 1024.20 1024.23 1024.17 1024.38 1024.38 1024.43 1024.27 1023.75 1023.55 1023.45 1023.36 1023.31 1023.29 1023.42 1023.54 1023.24 1022.99 1022.76 1022.49
1023.67 1023.41 1023.03 1022.30 1021.81 1021.88 1022.14 1022.42 1022.77 1023.12 1023.37 1023.77 1023.88 1023.83 1023.74 1023.65 1023.64 1023.57 1023.80 1024.00 1023.96 1023.93 1023.93 1024.05 1024.32 1024.39 1024.50 1024.36 1024.45 1024.51 1024.24 1023.74 1023.56 1023.29 1023.07 1023.06 1022.99 1023.00 1023.03 1023.27 1023.29 1022.99 1022.68
1024.29 1024.13 1023.82 1023.48 1023.10 1022.96 1023.06 1023.34 1023.71 1023.99 1024.14 1024.43 1024.40 1024.63 1024.49 1024.27 1024.26 1024.32 1024.60 1024.73 1024.74 1024.73 1024.65 1024.57 1024.66 1024.52 1024.55 1024.48 1024.37 1024.28 1023.91 1023.96 1023.72 1023.19 1023.01 1022.95 1023.01 1023.08 1022.89 1022.84 1023.07 1023.11 1022.93
1024.57 1024.36 1024.22 1024.15 1024.04 1024.06 1024.13 1024.12 1024.28 1024.72 1025.15 1025.58 1025.71 1025.68 1025.47 1025.31 1024.87 1024.94 1025.19 1025.42 1025.11 1024.83 1024.91 1024.98 1025.09 1025.06 1025.01 1024.82 1024.43 1024.11 1023.82 1023.69 1023.71 1023.20 1022.96 1023.08 1023.05 1023.04 1023.11 1023.03 1022.74 1022.41 1022.66
1024.85 1024.57 1024.43 1024.45 1024.39 1024.14 1024.07 1024.53 1025.16 1025.58 1026.25 1026.62 1026.92 1026.86 1026.79 1026.70 1026.58 1026.11 1025.84 1025.62 1025.56 1025.70 1025.87 1025.82 1025.20 1025.16 1024.99 1024.88 1024.21 1023.43 1023.11 1023.11 1023.31 1023.15 1023.09 1022.89 1022.80 1022.95 1023.31 1023.13 1022.91 1022.69 1022.31
1025.27 1025.03 1024.87 1024.94 1025.04 1024.89 1024.98 1025.24 1025.83 1026.66 1027.45 1027.67 1027.87 1027.86 1027.74 1027.58 1027.28 1027.21 1027.01 1027.07 1027.00 1026.52 1026.53 1026.38 1026.23 1025.72 1025.60 1025.52 1024.96 1024.11 1023.04 1022.77 1023.11 1023.02 1022.97 1023.21 1023.21 1023.01 1022.83 1023.21 1023.20 1022.88 1022.54
1025.96 1025.70 1025.15 1025.09 1025.15 1025.38 1025.69 1025.92 1026.30 1026.67 1027.28 1028.04 1028.57 1028.84 1028.79 1028.52 1028.46 1028.17 1028.04 1027.99 1027.82 1027.49 1027.69 1027.63 1027.35 1027.10 1026.62 1026.51 1026.38 1025.89 1024.68 1024.05 1024.00 1023.08 1023.15 1023.36 1023.27 1023.25 1023.12 1022.86 1022.99 1022.83 1022.60
1026.69 1026.59 1026.08 1025.68 1025.45 1025.31 1025.26 1025.34 1026.15 1026.91 1027.54 1028.75 1029.22 1029.65 1029.70 1029.53 1029.12 1029.07 1029.00 1028.81 1028.74 1028.80 1028.66 1028.52 1028.45 1028.07 1027.81 1027.62 1027.04 1027.26 1027.05 1026.78 1025.71 1024.09 1023.53 1023.51 1023.76 1023.58 1023.30 1023.05 1022.67 1022.68 1022.49
1026.94 1026.98 1026.77 1026.37 1026.50 1026.45 1026.53 1026.80 1027.00 1027.70 1028.47 1028.93 1029.61 1030.02 1030.12 1030.13 1030.12 1029.91 1029.66 1029.57 1029.62 1029.78 1029.54 1029.23 1029.05 1028.99 1028.77 1028.71 1028.49 1028.17 1027.72 1027.12 1026.78 1026.30 1024.60 1024.02 1024.00 1023.95 1023.54 1023.27 1022.91 1022.63 1022.39
1027.41 1027.40 1027.20 1027.10 1027.09 1027.31 1027.00 1027.24 1027.72 1028.09 1028.60 1028.99 1029.81 1030.15 1030.47 1030.70 1030.88 1030.71 1030.44 1030.45 1030.50 1030.26 1030.35 1030.02 1029.64 1029.80 1029.65 1029.48 1029.26 1028.93 1028.77 1028.28 1027.63 1027.22 1026.28 1025.40 1024.67 1023.87 1023.94 1023.67 1023.09 1022.65 1022.30
Wind_Speed
6 10 7 11 12 12 11 11 11 10 10 11 11 11 11 11 13 14 14 13 11 13 14 13 12 12 12 11 12 14 15 13 13 14 14 14 14 15 15 14 12 12 10
6 11 8 10 12 14 11 10 10 9 10 9 8 9 9 11 13 13 13 12 12 12 14 12 12 12 11 11 11 12 11 10 10 10 6 11 13 13 13 14 13 13 15
8 11 11 8 10 14 12 10 9 9 9 9 8 11 11 11 13 13 12 12 12 11 13 12 12 12 11 10 9 8 8 8 7 6 3 6 10 11 12 12 12 12 13
9 11 12 9 9 11 11 10 9 9 9 9 8 9 10 11 13 12 11 10 11 11 11 11 12 12 11 10 9 8 8 8 6 3 3 6 7 10 10 10 12 12 12
8 10 9 9 10 12 12 10 9 9 9 9 9 8 9 9 11 11 11 10 10 10 10 11 11 12 12 10 9 8 8 8 4 1 5 6 5 8 7 7 8 10 11
6 9 8 5 6 10 10 10 8 8 8 8 8 8 8 8 11 11 11 9 9 9 9 10 11 12 12 10 9 7 7 7 7 5 5 6 8 9 11 6 7 10 8
5 7 8 7 5 6 9 10 9 9 8 8 7 6 6 7 11 10 10 9 8 8 9 9 10 11 11 11 9 7 8 6 4 4 4 4 7 7 8 8 10 7 8
5 4 5 7 5 6 7 9 8 8 7 7 7 6 4 9 9 9 8 7 7 8 9 9 11 11 11 11 10 8 8 8 2 4 5 4 9 7 6 6 6 7 7
6 4 2 6 7 5 5 8 10 9 7 6 6 5 5 6 6 7 7 7 8 9 9 9 10 11 11 11 11 10 9 8 4 4 4 3 10 7 7 7 6 5 5
9 7 6 2 3 7 8 7 6 7 8 7 6 3 5 4 7 7 6 7 8 9 9 9 9 9 9 10 11 10 7 2 6 4 3 6 10 7 7 7 7 6 5
7 8 7 6 5 5 6 5 5 4 4 6 7 7 6 5 7 8 8 7 7 8 10 8 8 8 5 5 8 9 7 4 5 4 4 11 11 9 7 6 6 6 5
9 8 7 6 5 5 3 5 3 3 5 7 8 7 4 4 2 4 6 7 7 6 8 9 9 6 1 3 3 1 4 5 4 4 4 11 12 11 10 6 6 6 5
9 7 9 8 6 5 4 3 2 3 5 4 5 4 4 3 3 3 3 3 3 4 2 4 4 0 3 2 3 3 3 4 3 3 4 9 10 11 11 11 7 5 4
9 9 9 9 7 5 5 3 3 2 1 1 3 4 3 2 3 3 2 4 3 3 4 2 1 1 2 2 2 3 3 3 3 3 3 6 9 10 11 11 10 4 5
8 10 11 10 7 4 5 4 3 3 4 6 7 7 5 4 0 2 2 3 3 2 2 3 3 1 0 1 2 3 3 4 5 4 4 3 8 10 11 11 11 10 6
9 11 10 10 9 1 6 6 6 7 8 8 8 8 8 5 4 2 1 1 1 1 2 2 3 3 4 5 4 5 5 4 3 4 5 5 5 8 9 10 10 12 12
9 9 10 10 11 10 13 11 9 8 9 8 8 11 10 7 7 6 4 4 3 3 4 3 4 3 2 3 4 4 5 5 4 5 4 4 5 5 8 10 10 10 12
8 8 7 7 11 13 12 9 8 9 8 7 7 7 11 12 11 9 7 6 5 4 3 3 2 2 2 1 1 3 3 5 6 6 4 3 3 4 4 8 13 12 12
8 8 9 10 12 13 13 11 12 13 10 9 9 9 12 12 11 9 7 6 6 5 5 3 2 2 1 2 2 4 4 4 5 5 6 5 4 4 4 4 6 10 11
8 8 9 9 10 11 9 9 9 10 11 10 10 10 12 10 11 9 8 8 7 6 6 5 4 4 3 4 4 5 4 3 3 4 4 4 4 5 5 6 6 4 6
8 9 9 9 8 6 7 8 9 10 9 10 10 14 14 13 13 11 9 9 8 9 9 9 5 5 5 7 4 3 3 2 1 1 2 2 4 4 6 5 4 5 5
9 9 10 11 10 8 7 7 8 8 9 9 9 12 14 14 14 12 11 10 11 8 12 12 12 6 6 8 6 5 4 2 3 3 4 4 6 5 6 6 7 7 6
9 8 9 11 12 11 12 10 10 10 9 9 9 10 12 14 14 14 14 12 12 10 10 12 12 13 7 7 10 6 5 4 10 2 6 5 9 8 8 9 10 9 8
7 7 8 9 11 10 10 10 11 10 10 8 8 8 10 12 13 13 13 12 12 9 11 10 10 10 10 9 5 8 6 4 5 7 4 9 5 12 12 9 10 10 10
5 6 8 11 11 11 12 11 11 13 9 8 7 10 10 10 11 12 12 12 11 8 10 11 10 11 8 7 7 7 6 6 2 7 10 11 10 10 8 9 11 10 10
5 6 8 10 11 10 12 13 14 14 11 9 8 7 6 6 7 10 11 10 10 9 9 8 9 10 8 7 6 5 5 5 7 6 10 12 13 8 10 8 9 9 9
Wind_Direction
182 161 182 156 151 134 128 119 115 111 111 112 117 113 110 101 95 82 74 72 72 73 64 63 61 60 56 51 47 50 47 47 51 55 59 57 53 55 52 36 38 55 49
157 167 166 156 152 138 134 131 124 120 116 111 109 111 113 111 97 83 76 70 67 67 68 62 59 59 58 52 45 40 44 45 57 55 49 95 64 55 51 43 34 47 51
168 164 170 156 145 138 139 139 131 127 123 121 116 117 121 117 104 88 78 73 68 64 65 63 57 51 48 46 46 48 45 52 72 62 320 69 71 57 59 57 49 37 41
169 168 172 163 161 147 141 143 140 138 132 129 123 118 117 111 99 96 88 78 69 64 61 57 52 46 40 36 34 42 52 63 65 312 60 53 77 62 65 64 56 43 30
157 175 168 172 186 162 150 151 152 146 143 141 137 128 123 115 115 114 104 89 74 65 59 52 45 40 35 30 34 40 53 51 41 284 57 36 56 68 61 75 77 64 45
154 178 143 187 198 151 152 153 156 153 149 147 148 150 146 140 137 125 109 98 86 71 63 50 43 37 33 32 32 43 50 42 310 49 45 65 36 35 39 72 73 85 57
141 171 177 189 221 187 177 166 165 165 163 160 157 157 163 157 131 126 118 112 96 79 68 57 48 40 37 35 36 46 46 35 12 51 51 28 42 19 24 27 35 61 71
114 156 190 191 222 189 190 187 177 177 178 175 169 168 164 141 133 123 111 101 81 71 62 59 46 38 36 37 43 44 40 9 16 30 24 14 11 9 16 16 22 32 40
67 102 162 206 219 262 223 190 183 186 189 197 192 182 168 141 122 107 101 94 81 70 73 65 53 44 33 31 37 42 37 18 359 23 6 10 4 4 11 4 8 19 27
44 33 12 285 238 235 229 200 202 180 183 191 190 177 156 156 121 111 112 88 94 89 90 75 61 57 43 36 29 25 15 328 22 14 21 25 352 351 358 1 353 352 356
35 23 9 354 327 254 248 230 212 214 240 213 183 159 164 206 178 163 91 100 97 99 106 87 83 67 56 60 36 19 330 16 3 10 3 4 350 344 344 354 350 339 335
7 360 357 344 332 317 256 251 232 190 241 237 212 193 197 207 141 124 118 115 116 111 129 127 121 112 59 24 32 359 17 1 359 359 18 358 350 344 339 334 334 332 334
343 347 348 337 320 276 232 223 199 184 239 258 274 153 132 110 123 132 138 150 142 147 141 144 158 97 72 38 32 20 7 349 352 352 26 359 351 344 339 332 327 324 340
343 345 342 340 321 292 237 201 180 152 199 325 30 10 173 165 162 158 169 174 164 183 173 175 142 71 86 63 35 8 1 345 350 337 359 4 347 346 344 337 324 319 308
352 348 347 338 331 298 230 169 146 106 58 55 53 36 22 8 281 149 197 197 194 203 213 203 161 218 360 28 351 355 351 348 339 329 319 6 342 344 344 342 332 316 307
353 357 355 355 346 90 169 112 85 73 67 58 55 48 42 39 23 9 338 287 3 349 16 18 7 16 25 8 355 356 340 324 317 320 326 324 331 334 336 337 340 333 321
1 9 9 1 34 63 59 58 56 57 59 51 42 37 37 42 63 70 62 57 30 39 37 49 43 36 17 18 354 343 326 313 306 308 307 311 322 308 330 328 332 331 332
12 23 28 45 71 75 76 76 75 70 72 65 56 50 47 45 46 51 55 41 48 60 69 83 60 75 48 67 316 291 277 285 287 277 262 277 299 310 317 343 334 331 328
21 27 41 49 68 79 80 77 71 68 65 60 59 51 47 53 53 56 52 40 34 42 47 35 61 58 35 326 303 296 287 277 283 286 288 289 301 297 304 312 318 314 324
47 55 64 61 67 76 77 82 79 72 64 56 50 45 45 48 50 66 62 50 46 49 46 40 47 48 39 346 308 292 279 267 264 282 307 310 316 319 311 311 306 301 307
69 74 69 74 73 93 89 85 73 68 64 60 54 48 44 40 40 45 53 49 51 44 36 22 23 26 33 1 304 294 277 266 296 341 9 16 16 26 342 325 313 316 307
78 81 77 72 68 74 83 90 84 86 69 68 62 55 50 49 50 50 51 47 38 45 40 31 24 4 23 19 346 294 325 237 54 288 333 2 2 349 347 345 335 322 309
74 78 96 97 92 87 97 105 108 106 91 74 58 56 50 55 52 53 55 52 50 49 42 33 24 25 17 27 37 359 330 338 337 38 339 1 345 347 336 326 319 317 310
73 80 89 97 102 104 118 113 102 98 98 81 77 69 62 53 57 56 56 56 57 52 48 42 37 36 25 25 11 15 5 332 332 315 329 328 335 327 325 321 318 315 311
100 93 90 93 87 90 95 99 102 102 103 105 97 87 75 66 59 56 56 57 54 49 52 49 44 40 37 31 25 4 355 339 357 309 307 326 320 326 318 322 316 312 311
104 100 100 97 93 96 99 102 108 117 120 118 113 98 83 71 61 56 59 56 52 53 43 41 43 40 32 31 14 12 3 344 333 320 310 312 314 316 326 303 313 315 321